Regional Weather Roundup
Issued by NWS Green Bay, WI

Home | Current Version | Previous Version | Text Only | Print | Product List | Glossary On
Versions: 1 2 3 4 5 6 7 8 9 10 11 12 13 14 15 16 17 18 19 20 21 22 23 24 25 26 27 28 29 30 31 32 33 34 35 36 37 38 39 40 41 42 43 44 45 46 47 48 49 50
000
ASUS43 KGRB 010359
RWRGRB

NORTH-CENTRAL AND NORTHEAST WISCONSIN REGIONAL WEATHER ROUNDUP
NATIONAL WEATHER SERVICE GREEN BAY WI
1000 PM CST SAT JAN 31 2015

WIZ005-009-010>012-018-019-010500-
NORTH CENTRAL WISCONSIN

CITY           SKY/WX    TMP DP  RH WIND       PRES   REMARKS
IRONWOOD       CLOUDY    10   7  85 NE8       30.26S WCI  -1
MANITOWISH WTR NOT AVBL
ARBOR VITAE    NOT AVBL
EAGLE RIVER    NOT AVBL
LAND O LAKES   NOT AVBL
RHINELANDER    CLOUDY    12   5  73 NE6       30.21F WCI   3
PHILLIPS       NOT AVBL
ANTIGO         NOT AVBL
TOMAHAWK       NOT AVBL
MERRILL        NOT AVBL
$$

WIZ013-073-010500-
NORTHEAST WISCONSIN

CITY           SKY/WX    TMP DP  RH WIND       PRES   REMARKS
IRON MOUNTAIN  PTCLDY     9  -1  64 NE9       30.29R WCI  -4
MARINETTE      CLOUDY    14   3  62 NE15      30.29S WCI  -1
$$

WIZ017-030-035>037-045-010500-
CENTRAL WISCONSIN

CITY           SKY/WX    TMP DP  RH WIND       PRES   REMARKS
MEDFORD        NOT AVBL
WAUSAU         CLOUDY    18   9  68 NE12      30.19R WCI   5
MOSINEE        CLOUDY    21  16  79 NE13      30.19S WCI   9
MARSHFIELD     CLOUDY    23  13  65 NE10      30.17S
WISC RAPIDS    CLOUDY    26  16  65 NE8       30.19S
STEVENS POINT  NOT AVBL
WAUPACA        NOT AVBL
SHAWANO        NOT AVBL
CLINTONVILLE   NOT AVBL
$$

WIZ038-039-048-051-010500-
FOX VALLEY

CITY           SKY/WX    TMP DP  RH WIND       PRES   REMARKS
NWS GREEN BAY  CLOUDY    19  13  77 NE24G31   30.26S WCI   2
APPLETON       CLOUDY    21  12  68 NE16G24   30.22S WCI   7
OSHKOSH        CLOUDY    24  18  77 NE16      30.19S
FOND DU LAC    CLOUDY    27  18  69 NE10      30.18F
$$

WIZ022-050-052-010500-
EAST CENTRAL WISCONSIN

CITY           SKY/WX    TMP DP  RH WIND       PRES   REMARKS
STURGEON BAY   CLOUDY    16   5  62 NE16      30.30S WCI   0
MANITOWOC      NOT AVBL
SHEBOYGAN      CLOUDY    26  20  77 NE23G30   30.20S
$$

LMZ563-521-522-541>543-010500-
LAKESHORE

STATION/POSITION TIME  TEMP    WIND        PRES    VSBY  WAVE
                       AIR SEA DIR/SP/G                  HT/PER
                 (UTC) (F)     (DEG/KT/KT) (MB)    (MI)  (FT/S)
SHEBOYGAN LKSHOR 0300   30      30/ 17/ 19 1023.8F
KEWAUNEE LKSHORE 0300   22      30/ 21/ 28 1023.5S
NORTHPORT PIER   0300   16     360/ 19/ 22 1026.4R
SISTER BAY LKSHO 0300   15      10/ 18/ 25   N/A
CHAMBERS ISLAND  0300   16      10/ 16/ 21 1025.7S
MENOMINEE LKSHOR 0300   16      20/ 16     1026.6R
$$


USA.gov is the U.S. government's official web portal to all federal, state and local government web resources and services.